Weather reports worldwide

Advertisment
Karesuando A, Sweden (2081): temperature & dewpoint: 10.12.2019 14:00:00 - 16.12.2019 14:00:00 (CET)Karesuando A, Sweden (2081): wind speed & gusts: 10.12.2019 14:00:00 - 16.12.2019 14:00:00 (CET)Karesuando A, Sweden (2081): wind direction: 10.12.2019 14:00:00 - 16.12.2019 14:00:00 (CET)Karesuando A, Sweden (2081): reduced air pressure: 10.12.2019 14:00:00 - 16.12.2019 14:00:00 (CET)Karesuando A, Sweden (2081): visibility: 10.12.2019 14:00:00 - 16.12.2019 14:00:00 (CET)Karesuando A, Sweden (2081): precipitation: 10.12.2019 14:00:00 - 16.12.2019 14:00:00 (CET)
Date & Time tt [°C] td [°C] ff [km/h] ff [kn] fx [km/h] fx [kn] dd ppp [hPa] vv [km] rr [mm]
16.12.2019 14:00:00 -3,3 -4,0 4 2 11 6 ENE 994,8 2,1 0,8
16.12.2019 13:00:00 -3,2 -3,9 6 3 10 6 ENE 995,1 1,2 0,9
16.12.2019 12:00:00 -3,2 -3,9 6 3 10 5 ENE 995,4 1,8 0,7
16.12.2019 11:00:00 -3,1 -3,8 5 3 9 5 ENE 995,8 2,2 0,7
16.12.2019 10:00:00 -3,2 -3,8 4 2 9 5 ENE 996,1 1,7 0,6
16.12.2019 09:00:00 -3,2 -3,9 4 2 8 4 NE 996,2 2,0 0,6
16.12.2019 08:00:00 -3,2 -3,8 4 2 8 4 ENE 996,4 2,4 0,3
16.12.2019 07:00:00 -3,3 -3,9 5 3 10 5 E 996,5 2,8 0,3
16.12.2019 06:00:00 -3,2 -3,8 6 3 11 6 E 996,5 2,3 0,2
16.12.2019 05:00:00 -3,0 -3,7 8 4 13 7 E 996,7 3,6 0,3
16.12.2019 04:00:00 -2,8 -3,3 6 3 11 6 E 996,9 1,3 0,1
16.12.2019 03:00:00 -2,8 -3,4 7 4 11 6 E 997,2 10 0,0
16.12.2019 02:00:00 -2,7 -3,4 5 3 14 8 E 997,3 4,4 0,0
16.12.2019 01:00:00 -3,3 -3,9 7 4 16 8 ESE 997,5 6 0,1
16.12.2019 00:00:00 -2,5 -3,1 9 5 19 10 ESE 997,5 2,9 0,1
15.12.2019 23:00:00 -2,3 -2,8 11 6 20 11 E 997,8 3,3 0,1
15.12.2019 22:00:00 -1,9 -2,5 10 6 16 9 ESE 997,9 4,2 0,0
15.12.2019 21:00:00 -2,0 -2,5 9 5 16 9 ESE 997,9 8 0,0
15.12.2019 20:00:00 -2,1 -2,7 10 6 21 12 E 997,9 4,8 0,0
15.12.2019 19:00:00 -2,3 -2,9 11 6 18 10 E 998,0 4,0 0,7
15.12.2019 18:00:00 -2,3 -2,9 8 4 14 8 E 998,3 1,5 0,4
15.12.2019 17:00:00 -2,4 -3,0 6 3 14 8 E 998,6 2,1 0,1
15.12.2019 16:00:00 -2,6 -3,1 5 3 10 5 E 998,8 4,2 0,1
15.12.2019 15:00:00 -2,6 -3,2 5 3 11 6 E 999,2 4,6 0,1
15.12.2019 14:00:00 -2,5 -3,0 8 4 16 9 E 999,3 6 0,1
15.12.2019 13:00:00 -2,4 -2,9 9 5 16 9 E 999,6 3,7 0,1
15.12.2019 12:00:00 -2,3 -2,9 10 5 19 11 E 999,8 3,8 0,1
15.12.2019 11:00:00 -2,3 -2,8 11 6 18 10 E 999,7 2,8 0,2
15.12.2019 10:00:00 -2,1 -2,7 9 5 15 8 E 999,9 2,3 0,2
15.12.2019 09:00:00 -2,1 -2,8 8 4 19 11 E 1000,2 2,7 0,2
15.12.2019 08:00:00 -1,9 -2,5 6 3 16 9 E 1000,1 1,6 0,4
15.12.2019 07:00:00 -1,6 -2,6 8 4 16 9 ESE 1000,2 15 0,0
15.12.2019 06:00:00 -1,5 -2,7 9 5 - - ESE 1000,3 16 0,0
15.12.2019 05:00:00 -1,6 -2,3 8 4 18 10 ESE 1000,5 1,5 0,1
15.12.2019 04:00:00 -1,5 -2,4 9 5 20 11 ESE 1000,9 9 0,0
15.12.2019 03:00:00 -1,3 -2,1 9 5 18 10 ESE 1001,1 4,0 0,0
15.12.2019 02:00:00 -1,5 -2,1 8 4 17 9 ESE 1000,9 10 0,0
15.12.2019 01:00:00 -1,5 -1,8 6 3 11 6 SE 1001,4 3,2 0,0
15.12.2019 00:00:00 -1,6 -2,0 5 3 13 7 SE 1001,5 3,0 0,0
14.12.2019 23:00:00 -1,5 -2,4 6 4 17 9 SE 1001,7 15 0,0
14.12.2019 22:00:00 -1,5 -2,1 7 4 19 10 SSE 1001,9 7 0,0
14.12.2019 21:00:00 -1,4 -2,0 9 5 22 12 SE 1001,8 10 0,0
14.12.2019 20:00:00 -1,1 -2,1 10 5 19 11 SE 1001,7 14 0,0
14.12.2019 19:00:00 -1,0 -2,3 12 7 22 12 SSE 1001,6 16 0,0
14.12.2019 18:00:00 -0,9 -1,7 7 4 14 8 SE 1001,6 12 0,0
14.12.2019 17:00:00 -1,8 -2,5 6 3 13 7 ESE 1001,7 12 0,0
14.12.2019 16:00:00 -2,5 -3,1 8 5 14 8 E 1001,6 11 0,0
14.12.2019 15:00:00 -2,9 -3,4 7 4 13 7 E 1001,5 8 0,0
14.12.2019 14:00:00 -3,1 -3,8 6 3 10 6 E 1001,3 10 0,0
14.12.2019 13:00:00 -3,4 -4,3 5 3 9 5 E 1001,3 8 0,1
14.12.2019 12:00:00 -3,6 -5,1 4 2 12 7 E 1001,3 11 0,0
14.12.2019 11:00:00 -3,7 -5,3 10 5 18 10 S 1001,3 12 0,0
14.12.2019 10:00:00 -3,4 -5,6 8 5 17 9 S 1001,0 19 0,0
14.12.2019 09:00:00 -2,6 -5,0 8 4 22 12 S 1000,1 17 0,0
14.12.2019 08:00:00 -2,2 -4,5 7 4 29 16 S 999,4 13 0,0
14.12.2019 07:00:00 -1,9 -4,6 11 6 20 11 S 998,9 18 0,0
14.12.2019 06:00:00 -2,4 -4,1 7 4 26 14 SSW 998,5 3,0 0,0
14.12.2019 05:00:00 -2,1 -3,2 12 6 21 12 SSW 998,4 1,7 0,3
14.12.2019 04:00:00 -2,1 -3,6 6 3 23 13 S 998,0 15 0,0
14.12.2019 03:00:00 -1,4 -3,9 12 6 22 12 S 997,8 16 0,0
14.12.2019 02:00:00 -1,6 -3,9 12 6 27 14 S 997,4 15 0,0
14.12.2019 01:00:00 -1,4 -3,3 14 8 26 14 S 997,1 16 0,0
14.12.2019 00:00:00 -1,4 -3,1 11 6 24 13 S 996,5 16 0,0
13.12.2019 23:00:00 -1,5 -3,1 15 8 25 13 S 996,2 17 0,0
13.12.2019 22:00:00 -1,6 -3,2 13 7 27 15 S 995,7 15 0,0
13.12.2019 21:00:00 -1,6 -3,1 14 7 27 14 S 995,4 12 0,0
13.12.2019 20:00:00 -1,5 -3,2 13 7 24 13 S 994,9 17 0,0
13.12.2019 19:00:00 -1,6 -3,2 12 6 28 15 S 994,3 19 0,0
13.12.2019 18:00:00 - - - - - - - - - -
13.12.2019 17:00:00 -0,6 -3,0 11 6 23 12 S 993,3 14 0,0
13.12.2019 16:00:00 -0,6 -2,6 9 5 20 11 SSE 992,9 16 0,0
13.12.2019 15:00:00 -0,6 -2,6 6 3 16 8 SSE 992,2 15 0,2
13.12.2019 14:00:00 -0,5 -2,5 8 4 19 10 SSE 992,0 14 0,2
13.12.2019 13:00:00 -0,6 -2,3 12 7 21 11 S 991,4 4,7 0,0
13.12.2019 12:00:00 -0,4 -2,3 9 5 27 14 S 991,0 18 0,0
13.12.2019 11:00:00 -0,5 -1,8 15 8 26 14 S 990,6 7 0,0
13.12.2019 10:00:00 -0,5 -2,2 9 5 29 16 S 990,6 17 0,0
13.12.2019 09:00:00 -0,5 -2,1 11 6 31 17 S 990,0 17 0,0
13.12.2019 08:00:00 -0,2 -1,5 17 9 29 16 S 989,3 14 0,0
13.12.2019 07:00:00 0,0 -1,6 13 7 31 17 S 989,2 15 0,0
13.12.2019 06:00:00 -0,1 -1,9 15 8 30 16 S 989,2 17 0,0
13.12.2019 05:00:00 -0,1 -1,9 14 8 28 15 SSE 989,3 18 0,0
13.12.2019 04:00:00 -0,4 -1,4 10 5 24 13 S 989,6 6 0,0
13.12.2019 03:00:00 -0,2 -2,0 14 8 26 14 S 989,5 15 0,0
13.12.2019 02:00:00 -0,5 -2,2 12 6 26 14 S 989,8 16 0,0
13.12.2019 01:00:00 -0,6 -2,4 13 7 31 17 S 990,1 12 0,0
13.12.2019 00:00:00 -0,5 -2,6 11 6 29 15 S 990,4 17 0,0
12.12.2019 23:00:00 -0,7 -2,7 11 6 26 14 S 990,6 18 0,0
12.12.2019 22:00:00 -0,6 -3,0 11 6 24 13 S 990,9 14 0,0
12.12.2019 21:00:00 -0,8 -2,6 12 6 29 16 SSE 991,3 14 0,0
12.12.2019 20:00:00 -0,8 -2,8 10 6 25 13 SSE 991,4 18 0,0
12.12.2019 19:00:00 -1,1 -3,1 8 4 17 9 SSE 991,5 21 0,0
12.12.2019 18:00:00 -1,0 -2,9 10 5 23 13 SSE 991,7 14 0,0
12.12.2019 17:00:00 -2,4 -3,2 8 4 18 10 ESE 992,2 19 0,0
12.12.2019 16:00:00 -1,5 -3,3 10 6 26 14 SSE 992,3 13 0,0
12.12.2019 15:00:00 -1,6 -3,5 12 7 23 12 S 992,3 18 0,0
12.12.2019 14:00:00 -1,8 -3,9 10 6 23 12 S 992,9 18 0,0
12.12.2019 13:00:00 -2,0 -4,0 10 5 26 14 S 992,8 16 0,0
12.12.2019 12:00:00 -2,5 -4,5 10 5 17 9 SSE 992,8 17 0,0
12.12.2019 11:00:00 -2,7 -4,7 10 5 28 15 S 993,0 20 0,0
12.12.2019 10:00:00 -2,7 -4,7 11 6 29 16 S 993,3 22 0,0
12.12.2019 09:00:00 -3,4 -5,0 8 5 25 13 SSE 993,0 17 0,0
12.12.2019 08:00:00 -4,0 -5,5 13 7 34 18 S 993,2 14 -
12.12.2019 07:00:00 -4,4 -5,5 11 6 21 11 S 992,9 12 0,0
12.12.2019 06:00:00 -4,6 -5,8 9 5 19 10 S 992,5 19 0,0
12.12.2019 05:00:00 -4,3 -5,3 9 5 17 9 S 992,7 8 0,0
12.12.2019 04:00:00 -5,4 -6,2 5 3 13 7 E 992,5 18 0,0
12.12.2019 03:00:00 -6,7 -7,2 6 4 10 5 ESE 992,1 17 0,0
12.12.2019 02:00:00 -5,8 -6,5 5 3 13 7 ESE 991,2 19 0,0
12.12.2019 01:00:00 -6,5 -7,8 4 2 9 5 E 990,9 17 0,0
12.12.2019 00:00:00 -5,9 -6,8 7 4 14 8 SSW 990,1 17 0,0
11.12.2019 23:00:00 -4,9 -6,1 10 5 26 14 SSW 989,2 16 0,0
11.12.2019 22:00:00 -4,1 -5,4 16 8 28 15 SSW 988,1 16 0,0
11.12.2019 21:00:00 -2,9 -4,2 14 7 27 15 SW 987,1 21 0,0
11.12.2019 20:00:00 -2,5 -3,5 10 5 24 13 SW 985,7 14 0,0
11.12.2019 19:00:00 -2,7 -3,5 8 4 16 9 SW 984,7 22 0,2
11.12.2019 18:00:00 -3,2 -3,9 7 4 22 12 S 984,3 1,5 0,9
11.12.2019 17:00:00 -3,2 -4,0 10 5 27 15 S 983,9 1,2 0,5
11.12.2019 16:00:00 -3,8 -5,2 14 7 27 15 SSE 984,0 3,0 0,2
11.12.2019 15:00:00 -4,5 -5,8 14 8 38 20 SSE 984,6 2,2 0,2
11.12.2019 14:00:00 -5,0 -6,5 22 12 41 22 SSE 985,1 6 0,0
11.12.2019 13:00:00 -5,8 -7,3 21 11 44 24 SSE 986,2 10 0,2
11.12.2019 12:00:00 -6,4 -7,8 22 12 46 25 SSE 987,3 1,8 0,2
11.12.2019 11:00:00 -6,9 -8,2 21 12 44 24 SE 988,6 1,8 0,3
11.12.2019 10:00:00 -8,0 -9,1 17 9 33 18 SE 990,1 1,5 0,4
11.12.2019 09:00:00 -9,2 -10,5 18 10 34 18 ESE 991,7 1,1 0,3
11.12.2019 08:00:00 -10,8 -12,1 14 7 30 16 ESE 993,8 1,2 0,1
11.12.2019 07:00:00 -15,6 -17,4 9 5 24 13 E 995,9 3,0 0,0
11.12.2019 06:00:00 -17,6 -19,7 12 7 27 14 ENE 998,2 2,7 0,0
11.12.2019 05:00:00 -20,0 -22,2 8 4 19 10 E 999,9 3,5 0,0
11.12.2019 04:00:00 -21,7 -24,1 9 5 23 12 E 1001,8 50 0,0
11.12.2019 03:00:00 -23,5 -26,1 16 9 25 13 ENE 1003,1 50 0,0
11.12.2019 02:00:00 -23,0 -25,4 13 7 21 12 E 1004,4 46 0,0
11.12.2019 01:00:00 -22,8 -25,3 12 7 17 9 E 1005,0 50 0,0
11.12.2019 00:00:00 -22,3 -24,7 12 6 16 9 E 1005,7 47 0,0
10.12.2019 23:00:00 -21,6 -23,9 11 6 16 9 E 1006,4 38 0,0
10.12.2019 22:00:00 -21,5 -23,8 10 5 16 9 E 1006,8 50 0,0
10.12.2019 21:00:00 -18,6 -20,8 10 5 13 7 E 1006,0 50 0,0
10.12.2019 20:00:00 -18,9 -21,2 7 4 9 5 E 1005,9 49 0,0
10.12.2019 19:00:00 -16,4 -18,3 4 2 16 9 SW 1005,9 50 0,0
10.12.2019 18:00:00 -16,4 -18,4 8 4 15 8 SSW 1005,7 40 0,0
10.12.2019 17:00:00 -18,2 -20,3 7 4 10 6 SW 1006,1 50 0,0
10.12.2019 16:00:00 -17,0 -19,0 7 4 17 9 SSW 1006,1 50 0,0
10.12.2019 15:00:00 -16,8 -18,7 11 6 16 8 SW 1005,5 50 0,0
10.12.2019 14:00:00 -16,2 -18,2 9 5 14 7 SSW 1005,2 50 0,0

tt = temperature
td = dewpoint
ff = wind speed
fx = gusts
dd = wind direction
ppp = reduced air pressure
vv = visibility
rr = precipitation

Next stations